General Mariano Matamoros Airport

Jump to: basic info | weather | frequencies | runways | comments

Related pages: nearby airports | nearby navaids | notams | map

Basic information (top)

Codes: CVJ MMCB
Location: lon 18.834801, lat -99.261299, elev 4,277 ft / 1,304 m msl
Status: medium_airport
Scheduled airline service: yes
Links: Wikipedia Mobile

Weather (top)

Current conditions (rec'd 2014/10/21 17:50Z):

MMCB 211750Z 00000KT 7SM BKN015TCU BKN220 24/17 A3001 RMK 8/208 HZY

Airport forecast (rec'd 2014/10/20 06:39Z):

TAF TAF MMCB 200501Z 2006/2106 00000KT 5SM -RA BKN020 BKN100 
     FM201000 00000KT 6SM HZ SCT010 BKN100 
     FM201800 06010KT P6SM BKN020 BKN100 
      TEMPO 2021/2101 3SM RA 
     FM210300 00000KT P6SM SCT020 BKN100

Frequencies (top)

Verify before use: may be inaccurate or out of date.

APP: 128.9 MHz (TOLUCA APP)
TWR: 118.35 MHz (CUERNAVACA TWR)

Runways (top)

02/20: 9,439 x 148 ft (2,877 x 45 m) — paved — lighted — threshold 20 displaced 260 ft (79 m)

Latest comments (top)

No comments yet for General Mariano Matamoros Airport

More... (top)

See also NOTAMs and nearby airports and navaids, or visit the General Mariano Matamoros Airport page at the main OurAirports website..